Location: Unspecified
(0.0000°N, 0.0000°E)
Time: 18:31:53
(UTC+00:00)

S-56A Canister/Altair - Pass Details

Date: 15 December 2018
Orbit: 633 x 2500 km, 38.9° (Epoch: 20 March)

Event Time Altitude Azimuth Distance (km) Brightness Sun altitude
Rises 07:27:41 0° 336° (NNW) 5,931 11.6 21.2°
Reaches altitude 10° 07:34:40 10° 358° (N) 5,110 11.5 22.8°
Maximum altitude 07:41:42 15° 27° (NNE) 4,772 11.7 24.3°
Drops below altitude 10° 07:48:37 10° 55° (NE) 5,049 12.2 25.9°
Sets 07:55:17 0° 77° (ENE) 5,823 12.7 27.4°
